Hourly Data Report for June 03, 2018

LONDON CS
ONTARIO
Current Station Operator: ECCC - MSC

43°02'00.000" N
81°09'00.000" W
278.00 m
6144478
71622
WSN

Download Data

Hourly Data (June 2018)
Hourly Data Report for June 3, 2018
TIME Temp Definition
°C
Dew Point Definition
°C
Rel Hum Definition
%
Wind Dir Definition
10's deg

Wind Spd Definition
km/h
Visibility Definition
km
Stn Press Definition
kPa
Hmdx Definition


Wind Chill Definition


Weather Definition


00:00 15.6 12.0 79 LegendMM LegendMM   98.06     LegendNANA
01:00 15.9 12.7 81 LegendMM LegendMM   98.03     LegendNANA
02:00 15.5 12.4 82 LegendMM LegendMM   97.99     LegendNANA
03:00 15.1 12.1 82 LegendMM LegendMM   97.87     LegendNANA
04:00 14.7 11.9 83 LegendMM LegendMM   97.84     LegendNANA
05:00 14.3 12.0 86 LegendMM LegendMM   97.81     LegendNANA
06:00 14.9 12.3 85 LegendMM LegendMM   97.81     LegendNANA
07:00 15.6 13.0 85 LegendMM LegendMM   97.82     LegendNANA
08:00 17.9 13.9 78 LegendMM LegendMM   97.76     LegendNANA
09:00 19.8 15.5 76 LegendMM LegendMM   97.72     LegendNANA
10:00 22.1 17.6 76 LegendMM LegendMM   97.65 28   LegendNANA
11:00 22.6 15.9 66 LegendMM LegendMM   97.62 27   LegendNANA
12:00 23.0 15.9 64 LegendMM LegendMM   97.55 28   LegendNANA
13:00 22.8 15.6 64 LegendMM LegendMM   97.50 27   LegendNANA
14:00 20.0 17.7 87 LegendMM LegendMM   97.45 26   LegendNANA
15:00 19.6 17.9 90 LegendMM LegendMM   97.42     LegendNANA
16:00 20.7 17.8 84 LegendMM LegendMM   97.42 27   LegendNANA
17:00 20.6 17.2 81 LegendMM LegendMM   97.39 26   LegendNANA
18:00 19.3 17.0 86 LegendMM LegendMM   97.40     LegendNANA
19:00 19.8 17.5 87 LegendMM LegendMM   97.40     LegendNANA
20:00 18.9 17.3 90 LegendMM LegendMM   97.42     LegendNANA
21:00 18.5 16.6 89 LegendMM LegendMM   97.47     LegendNANA
22:00 17.7 13.0 74 LegendMM LegendMM   97.51     LegendNANA
23:00 16.1 11.3 73 LegendMM LegendMM   97.54     LegendNANA

Notes on Data Quality.

Legend

  • E = Estimated
  • M = Missing
  • NA = Not Available*
  • [empty] = Indicates an unobserved value
Date modified: